Simultaneous Nadir Overpasses (SNOs) Predictions

Prediction of SNOs between FY3D and NOAA-19 Satellite Orbit:

Table of predicted SNOs for the next 14.0 days since TLE Epoch: 1/8/2025
Index Date (FY3D) Time (FY3D) Lat,Lon (FY3D) SZA (FY3D ) Date (NOAA-19) Time (NOAA-19) Lat,Lon (NOAA-19) SZA (NOAA-19 ) Distance(km) Time Diff (sec)
1 01/09/2025 18:51:26 75.78, -98.58 97.69 01/09/2025 18:50:15 75.77,-100.10 97.68 41.48 71
2 01/09/2025 19:42:15 -76.01, 67.94 82.09 01/09/2025 19:41:12 -76.00, 67.94 82.10 1.10 63
3 01/09/2025 20:33:01 76.01,-124.76 97.91 01/09/2025 20:32:07 75.99,-124.80 97.89 2.03 54
4 01/09/2025 21:23:45 -76.01, 42.55 82.10 01/09/2025 21:23:09 -76.00, 42.46 82.11 3.06 36
5 01/09/2025 22:14:31 76.01,-150.14 97.90 01/09/2025 22:14:03 76.04,-150.13 97.93 2.70 28
6 01/09/2025 23:05:15 -76.02, 17.17 82.11 01/09/2025 23:05:05 -76.04, 17.13 82.08 2.98 10
7 01/09/2025 23:56:01 76.02,-175.53 97.90 01/09/2025 23:56:00 76.04,-175.62 97.91 3.19 1
8 01/10/2025 00:46:46 -76.06, -8.38 82.07 01/10/2025 00:47:02 -76.04, -8.36 82.09 2.80 16
9 01/10/2025 01:37:32 76.07, 158.92 97.93 01/10/2025 01:37:56 76.08, 159.05 97.95 3.64 24
10 01/10/2025 02:28:16 -76.07, -33.77 82.07 01/10/2025 02:28:58 -76.08, -33.69 82.06 2.61 42
11 01/10/2025 03:19:02 76.07, 133.53 97.93 01/10/2025 03:19:53 76.08, 133.56 97.94 0.90 51
12 01/10/2025 04:09:45 -76.07, -59.15 82.08 01/10/2025 04:10:54 -76.08, -59.18 82.07 1.31 69
13 01/10/2025 05:00:34 76.21, 107.66 98.05 01/10/2025 05:01:46 76.21, 108.56 98.06 23.80 72



Historial Predications of SNOs between FY3D and NOAA-19

"> 06:35:00 82.02, 134.59 107.09 01/08/2025 06:34:59 82.02, 134.60 107.09 0.06 1 16 01/08/2025 07:24:20 -82.02, -57.73 72.92 01/08/2025 07:24:19 -82.02, -57.73 72.92 0.06 1 17 01/08/2025 08:13:39 82.02, 109.84 107.07 01/08/2025 08:13:38 82.02, 109.85 107.07 0.06 1 18 01/08/2025 09:02:59 -82.02, -82.48 72.93 01/08/2025 09:02:58 -82.02, -82.47 72.93 0.06 1 19 01/08/2025 09:52:18 82.02, 85.54 107.10 01/08/2025 09:52:17 82.02, 85.54 107.10 0.06 1 20 01/08/2025 10:41:38 -82.02,-106.78 72.91 01/08/2025 10:41:37 -82.02,-106.78 72.91 0.06 1 21 01/08/2025 11:30:58 82.02, 60.79 107.08 01/08/2025 11:30:57 82.02, 60.79 107.08 0.06 1 22 01/08/2025 12:20:18 -82.02,-131.53 72.93 01/08/2025 12:20:17 -82.02,-131.53 72.93 0.06 1 23 01/08/2025 13:09:38 82.02, 36.04 107.06 01/08/2025 13:09:37 82.02, 36.05 107.06 0.06 1 24 01/08/2025 13:58:58 -82.02,-156.28 72.94 01/08/2025 13:58:57 -82.02,-156.27 72.94 0.06 1 25 01/08/2025 14:48:18 82.02, 11.29 107.05 01/08/2025 14:48:17 82.02, 11.30 107.05 0.06 1 26 01/08/2025 15:37:38 -82.02, 178.98 72.96 01/08/2025 15:37:37 -82.02, 178.98 72.96 0.06 1 27 01/08/2025 16:26:58 82.02, -13.46 107.03 01/08/2025 16:26:57 82.02, -13.45 107.03 0.06 1 28 01/08/2025 17:16:18 -82.02, 154.23 72.98 01/08/2025 17:16:17 -82.02, 154.24 72.98 0.06 1 29 01/08/2025 18:05:37 82.02, -37.76 107.05 01/08/2025 18:05:36 82.02, -37.76 107.05 0.06 1 30 01/08/2025 18:54:58 -82.02, 129.49 73.00 01/08/2025 18:54:57 -82.02, 129.49 73.00 0.06 1 31 01/08/2025 19:44:17 82.02, -62.51 107.04 01/08/2025 19:44:16 82.02, -62.51 107.04 0.06 1 32 01/08/2025 20:33:37 -82.02, 105.18 72.97 01/08/2025 20:33:36 -82.02, 105.18 72.97 0.06 1 33 01/08/2025 21:22:57 82.02, -87.26 107.02 01/08/2025 21:22:56 82.02, -87.26 107.02 0.06 1 34 01/08/2025 22:12:17 -82.02, 80.43 72.99 01/08/2025 22:12:16 -82.02, 80.44 72.99 0.06 1 35 01/08/2025 23:01:37 82.02,-112.01 107.00 01/08/2025 23:01:36 82.02,-112.01 107.00 0.06 1 36 01/08/2025 23:50:57 -82.02, 55.68 73.01 01/08/2025 23:50:56 -82.02, 55.69 73.01 0.06 1 37 01/09/2025 00:40:17 82.02,-136.76 106.98 01/09/2025 00:40:16 82.02,-136.76 106.98 0.06 1 38 01/09/2025 01:29:37 -82.02, 30.94 73.03 01/09/2025 01:29:36 -82.02, 30.94 73.03 0.06 1 39 01/09/2025 02:18:57 82.02,-161.51 106.96 01/09/2025 02:18:56 82.02,-161.51 106.96 0.06 1 40 01/09/2025 03:08:17 -82.02, 6.19 73.05 01/09/2025 03:08:16 -82.02, 6.19 73.05 0.06 1 41 01/09/2025 03:57:36 82.02, 174.18 106.99 01/09/2025 03:57:35 82.02, 174.18 106.99 0.06 1 42 01/09/2025 04:46:56 -82.02, -18.12 73.02 01/09/2025 04:46:55 -82.02, -18.12 73.02 0.06 1 43 01/09/2025 05:36:16 82.02, 149.43 106.97 01/09/2025 05:36:15 82.02, 149.43 106.97 0.06 1 44 01/09/2025 06:25:36 -82.02, -42.87 73.04 01/09/2025 06:25:35 -82.02, -42.87 73.04 0.06 1 45 01/09/2025 07:14:56 82.02, 124.68 106.95 01/09/2025 07:14:55 82.02, 124.68 106.95 0.06 1 46 01/09/2025 08:04:16 -82.02, -67.62 73.06 01/09/2025 08:04:15 -82.02, -67.61 73.06 0.06 1 47 01/09/2025 08:53:36 82.02, 99.92 106.93 01/09/2025 08:53:35 82.02, 99.93 106.93 0.06 1 48 01/09/2025 09:42:56 -82.02, -92.37 73.08 01/09/2025 09:42:55 -82.02, -92.36 73.08 0.06 1 49 01/09/2025 10:32:16 82.02, 75.17 106.91 01/09/2025 10:32:15 82.02, 75.18 106.91 0.06 1 50 01/09/2025 11:21:36 -82.02,-117.12 73.10 01/09/2025 11:21:35 -82.02,-117.11 73.10 0.06 1 51 01/09/2025 12:10:55 82.02, 50.86 106.93 01/09/2025 12:10:54 82.02, 50.87 106.93 0.06 1 52 01/09/2025 13:00:15 -82.02,-141.43 73.07 01/09/2025 13:00:14 -82.02,-141.42 73.07 0.06 1 53 01/09/2025 13:49:35 82.02, 26.11 106.91 01/09/2025 13:49:34 82.02, 26.11 106.91 0.06 1 54 01/09/2025 14:38:55 -82.02,-166.18 73.09 01/09/2025 14:38:54 -82.02,-166.17 73.09 0.06 1 55 01/09/2025 15:28:15 82.02, 1.36 106.89 01/09/2025 15:28:14 82.02, 1.36 106.89 0.06 1 56 01/09/2025 16:17:35 -82.02, 169.07 73.11 01/09/2025 16:17:34 -82.02, 169.08 73.11 0.06 1 57 01/09/2025 17:06:55 82.02, -23.40 106.87 01/09/2025 17:06:54 82.02, -23.39 106.87 0.06 1 58 01/09/2025 17:56:15 -82.02, 144.32 73.13 01/09/2025 17:56:14 -82.02, 144.33 73.13 0.06 1 59 01/09/2025 18:45:35 82.02, -48.15 106.85 01/09/2025 18:45:34 82.02, -48.15 106.85 0.06 1 60 01/09/2025 19:34:55 -82.02, 119.57 73.15 01/09/2025 19:34:54 -82.02, 119.57 73.15 0.06 1 61 01/09/2025 20:24:14 82.02, -72.46 106.88 01/09/2025 20:24:13 82.02, -72.46 106.88 0.06 1 62 01/09/2025 21:13:35 -82.02, 94.82 73.17 01/09/2025 21:13:34 -82.02, 94.82 73.17 0.06 1 63 01/09/2025 22:02:54 82.02, -97.22 106.86 01/09/2025 22:02:53 82.02, -97.21 106.86 0.06 1 64 01/09/2025 22:52:14 -82.02, 70.51 73.14 01/09/2025 22:52:13 -82.02, 70.51 73.14 0.06 1 65 01/09/2025 23:41:34 82.02,-121.97 106.84 01/09/2025 23:41:33 82.02,-121.97 106.84 0.06 1 66 01/10/2025 00:30:54 -82.02, 45.75 73.16 01/10/2025 00:30:53 -82.02, 45.76 73.16 0.06 1 67 01/10/2025 01:20:14 82.02,-146.73 106.82 01/10/2025 01:20:13 82.02,-146.72 106.82 0.06 1 68 01/10/2025 02:09:34 -82.02, 21.00 73.18 01/10/2025 02:09:33 -82.02, 21.01 73.18 0.06 1 69 01/10/2025 02:58:54 82.02,-171.48 106.80 01/10/2025 02:58:53 82.02,-171.48 106.80 0.06 1 70 01/10/2025 03:48:14 -82.02, -3.75 73.20 01/10/2025 03:48:13 -82.02, -3.75 73.20 0.06 1 71 01/10/2025 04:37:33 82.02, 164.21 106.83 01/10/2025 04:37:32 82.02, 164.21 106.83 0.06 1 72 01/10/2025 05:26:54 -82.02, -28.50 73.22 01/10/2025 05:26:53 -82.02, -28.50 73.22 0.06 1 73 01/10/2025 06:16:13 82.02, 139.45 106.80 01/10/2025 06:16:12 82.02, 139.45 106.80 0.06 1 74 01/10/2025 07:05:33 -82.02, -52.82 73.20 01/10/2025 07:05:32 -82.02, -52.81 73.20 0.06 1 75 01/10/2025 07:54:53 82.02, 114.69 106.78 01/10/2025 07:54:52 82.02, 114.70 106.78 0.06 1 76 01/10/2025 08:44:13 -82.02, -77.57 73.22 01/10/2025 08:44:12 -82.02, -77.57 73.22 0.06 1 77 01/10/2025 09:33:33 82.02, 89.94 106.76 01/10/2025 09:33:32 82.02, 89.94 106.76 0.06 1 78 01/10/2025 10:22:53 -82.02,-102.32 73.24 01/10/2025 10:22:52 -82.02,-102.32 73.24 0.06 1 79 01/10/2025 11:12:12 82.02, 65.18 106.74 01/10/2025 11:12:11 82.02, 65.19 106.74 0.06 1 80 01/10/2025 12:01:32 -82.02,-127.08 73.26 01/10/2025 12:01:31 -82.02,-127.07 73.26 0.06 1 81 01/10/2025 12:50:51 82.02, 40.87 106.77 01/10/2025 12:50:50 82.02, 40.87 106.77 0.06 1 82 01/10/2025 13:40:12 -82.02,-151.83 73.28 01/10/2025 13:40:11 -82.02,-151.83 73.28 0.06 1 83 01/10/2025 14:29:31 82.02, 16.11 106.75 01/10/2025 14:29:30 82.02, 16.11 106.75 0.06 1 84 01/10/2025 15:18:51 -82.02,-176.15 73.25 01/10/2025 15:18:50 -82.02,-176.14 73.25 0.06 1 85 01/10/2025 16:08:11 82.02, -8.65 106.73 01/10/2025 16:08:10 82.02, -8.64 106.73 0.06 1 86 01/10/2025 16:57:31 -82.02, 159.10 73.28 01/10/2025 16:57:30 -82.02, 159.10 73.28 0.06 1 87 01/10/2025 17:46:51 82.02, -33.40 106.71 01/10/2025 17:46:50 82.02, -33.40 106.71 0.06 1 88 01/10/2025 18:36:11 -82.02, 134.34 73.30 01/10/2025 18:36:10 -82.02, 134.35 73.30 0.06 1 89 01/10/2025 19:25:31 82.02, -58.16 106.69 01/10/2025 19:25:30 82.02, -58.16 106.69 0.06 1 90 01/10/2025 20:14:51 -82.02, 109.59 73.32 01/10/2025 20:14:50 -82.02, 109.59 73.32 0.06 1 91 01/10/2025 21:04:10 82.02, -82.48 106.71 01/10/2025 21:04:09 82.02, -82.47 106.71 0.06 1 92 01/10/2025 21:53:31 -82.02, 84.83 73.34 01/10/2025 21:53:30 -82.02, 84.84 73.34 0.06 1 93 01/10/2025 22:42:50 82.02,-107.24 106.69 01/10/2025 22:42:49 82.02,-107.23 106.69 0.06 1 94 01/10/2025 23:32:10 -82.02, 60.52 73.31 01/10/2025 23:32:09 -82.02, 60.52 73.31 0.06 1 95 01/11/2025 00:21:30 82.02,-132.00 106.67 01/11/2025 00:21:29 82.02,-131.99 106.67 0.06 1 96 01/11/2025 01:10:50 -82.02, 35.76 73.33 01/11/2025 01:10:49 -82.02, 35.76 73.33 0.06 1 97 01/11/2025 02:00:10 82.02,-156.75 106.65 01/11/2025 02:00:09 82.02,-156.75 106.65 0.06 1 98 01/11/2025 02:49:30 -82.02, 11.00 73.35 01/11/2025 02:49:29 -82.02, 11.01 73.35 0.06 1 99 01/11/2025 03:38:50 82.02, 178.49 106.63 01/11/2025 03:38:49 82.02, 178.49 106.63 0.06 1 10
